Rimnicu Vilcea, Romania
Current Conditions -  °F | °C
As of 7:30 AM on Thursday 27 Nov 2014 (Local Time) from LRSB Reporting Station
Light Snow Light Snow  
Wind Chill: 23°   Ceiling: 200
Heat Index: 23°   Visibility: 0.15mi
Dew Point: 21°   Wind: 2mph
Humidity: 93%   Direction: NA
Pressure: 30.18"   Gusts: NA
Location:  45.11°N, 24.38°E
Report Text: LRSB 270430Z VRB02KT 0250 R27/0800N -SG FZFG BKN002 OVC003M05/M06 Q1022 R27/490294
Loading
Personal Weather Stations






























Interactive Weather Map New forecast layout! Learn more

10-Day Weather Forecast

Advertisements
Track Severe Weather on mobile